Waarnemingen

Advertentie
Mijn weer
Nice, Frankrijk (7690): temperatuur & dauwpunt: 17.05.2018 20:00:00 - 23.05.2018 20:00:00 (CEST)Nice, Frankrijk (7690): temperatuur 5cm: 17.05.2018 20:00:00 - 23.05.2018 20:00:00 (CEST)Nice, Frankrijk (7690): temperatuur -20cm & temperatuur -100cm: 17.05.2018 20:00:00 - 23.05.2018 20:00:00 (CEST)Nice, Frankrijk (7690): windsnelheid & windstoten: 17.05.2018 20:00:00 - 23.05.2018 20:00:00 (CEST)Nice, Frankrijk (7690): windrichting: 17.05.2018 20:00:00 - 23.05.2018 20:00:00 (CEST)Nice, Frankrijk (7690): luchtdruk: 17.05.2018 20:00:00 - 23.05.2018 20:00:00 (CEST)Nice, Frankrijk (7690): zicht: 17.05.2018 20:00:00 - 23.05.2018 20:00:00 (CEST)Nice, Frankrijk (7690): Zonneschijnduur: 17.05.2018 20:00:00 - 23.05.2018 20:00:00 (CEST)Nice, Frankrijk (7690): neerslag: 17.05.2018 20:00:00 - 23.05.2018 20:00:00 (CEST)
Datum & Tijd tt [°C] td [°C] tt 5cm [°C] tt -20cm [°C] tt -100cm [°C] ff [km/u] ff [kn] fx [km/u] fx [kn] dd ppp [hPa] vv [km] sd [min] rr [mm]
23.05.2018 20:00:00 19,6 16,8 20,2 19,2 18,4 14 7 19 10 ZW 1016,8 15 23 0,0
23.05.2018 19:00:00 19,6 16,6 20,4 19,2 18,4 15 8 20 11 ZW 1016,8 15 10 0,0
23.05.2018 18:00:00 19,7 16,7 20,8 19,2 18,5 6 3 13 7 ZZO 1017,0 25 0 0,0
23.05.2018 17:00:00 19,7 16,7 20,7 19,2 18,4 11 6 14 8 Z 1017,2 25 0 0,0
23.05.2018 16:00:00 19,8 16,6 21,7 19,2 18,4 10 5 16 9 Z 1017,5 25 15 0,0
23.05.2018 15:00:00 20,7 16,5 26,6 19,3 18,4 15 8 23 12 Z 1017,3 30 60 0,0
23.05.2018 14:00:00 20,5 16,5 26,7 19,3 18,5 20 11 29 15 Z 1017,2 30 60 0,0
23.05.2018 13:00:00 20,2 16,0 26,9 19,3 18,4 19 10 26 14 Z 1017,0 30 60 0,0
23.05.2018 12:00:00 20,0 15,8 26,6 19,2 18,4 14 8 21 11 Z 1017,0 50 60 0,0
23.05.2018 11:00:00 19,9 15,3 26,0 19,2 18,4 13 7 16 9 Z 1016,9 50 60 0,0
23.05.2018 10:00:00 19,1 15,0 24,7 19,3 18,4 9 5 11 6 Z 1016,8 50 60 0,0
23.05.2018 09:00:00 18,1 14,0 19,5 19,2 18,4 5 3 9 5 ZW 1016,6 50 43 0,0
23.05.2018 08:00:00 17,9 14,2 17,2 19,3 18,4 7 4 19 10 NNW 1016,4 50 15 0,0
23.05.2018 07:00:00 17,1 14,0 16,4 19,2 18,3 13 7 19 10 NNW 1015,9 40 0 0,0
23.05.2018 06:00:00 16,7 14,0 16,1 19,3 18,4 9 5 16 9 NNW 1015,5 40 0 0,0
23.05.2018 05:00:00 16,8 14,3 16,4 19,2 18,3 9 5 14 8 NNW 1015,6 30 0 0,0
23.05.2018 04:00:00 16,7 14,5 16,2 19,2 18,4 10 5 16 9 NW 1015,7 30 0 0,0
23.05.2018 03:00:00 16,4 14,6 15,7 19,2 18,3 10 5 14 7 NNW 1015,8 30 0 0,0
23.05.2018 02:00:00 16,8 14,6 16,2 19,2 18,4 9 5 13 7 NW 1015,8 30 0 0,0
23.05.2018 01:00:00 17,0 14,8 16,5 19,2 18,3 9 5 11 6 NNW 1016,1 30 0 0,0
23.05.2018 00:00:00 17,6 15,0 16,9 19,3 18,3 7 4 11 6 NW 1015,9 30 0 0,0
22.05.2018 23:00:00 18,2 14,7 17,2 19,2 18,4 3 1 6 4 N 1015,7 30 0 0,0
22.05.2018 22:00:00 17,8 13,5 17,3 19,2 18,3 4 2 6 3 WZW 1015,5 30 0 0,0
22.05.2018 21:00:00 18,4 14,1 17,7 19,2 18,4 4 2 6 3 ZW 1014,8 30 0 0,0
22.05.2018 20:00:00 18,5 13,4 18,5 19,2 18,3 5 3 7 4 W 1014,4 50 1 0,0
22.05.2018 19:00:00 18,9 13,5 20,4 19,2 18,3 0 0 5 3 N 1014,3 50 4 0,0
22.05.2018 18:00:00 19,1 13,3 20,0 19,2 18,3 3 2 18 10 ZO 1014,1 50 12 0,0
22.05.2018 17:00:00 19,1 13,9 20,2 19,2 18,3 4 2 10 6 ONO 1014,1 50 0 0,0
22.05.2018 16:00:00 19,3 13,5 18,7 19,2 18,3 4 2 12 7 N 1014,2 50 0 0,0
22.05.2018 15:00:00 18,6 14,1 20,7 19,2 18,3 4 2 8 4 ZW 1014,2 20 0 0,0
22.05.2018 14:00:00 18,7 14,6 19,6 19,2 18,3 5 3 8 4 ZZW 1014,0 20 0 0,0
22.05.2018 13:00:00 18,6 14,5 19,8 19,2 18,2 4 2 10 6 OZO 1013,9 20 0 0,0
22.05.2018 12:00:00 18,1 15,5 18,6 19,2 18,3 5 3 13 7 WNW 1013,6 20 0 0,0
22.05.2018 11:00:00 17,3 16,0 17,0 19,2 18,3 8 4 12 6 NW 1013,4 12 0 0,4
22.05.2018 10:00:00 16,9 15,6 16,6 19,2 18,3 0 0 5 3 N 1013,4 8 0 1,2
22.05.2018 09:00:00 16,9 15,2 16,4 19,2 18,2 3 2 8 4 O 1013,0 8 0 0,8
22.05.2018 08:00:00 16,9 15,2 16,5 19,2 18,2 4 2 9 5 N 1012,6 10 0 0,2
22.05.2018 07:00:00 16,9 15,6 16,1 19,2 18,3 5 3 8 5 NNW 1012,0 6 0 0,4
22.05.2018 06:00:00 16,5 15,0 16,1 19,2 18,2 4 2 6 4 WNW 1011,7 15 0 0,0
22.05.2018 05:00:00 16,5 15,2 15,9 19,2 18,3 4 2 7 4 W 1011,7 10 0 0,0
22.05.2018 04:00:00 16,7 15,1 15,9 19,2 18,2 0 0 7 4 N 1012,0 10 0 0,6
22.05.2018 03:00:00 17,0 15,0 16,1 19,2 18,2 5 3 13 7 OZO 1012,1 10 0 0,4
22.05.2018 02:00:00 17,3 15,8 16,5 19,2 18,2 12 7 21 11 O 1012,6 12 0 1,0
22.05.2018 01:00:00 17,7 15,1 16,3 19,2 18,2 19 10 26 14 O 1012,8 12 0 0,0
22.05.2018 00:00:00 17,9 15,3 16,3 19,1 18,2 8 5 33 18 ONO 1012,7 12 0 0,0
21.05.2018 23:00:00 18,3 15,4 16,6 19,1 18,2 24 13 39 21 O 1012,8 12 0 0,0
21.05.2018 22:00:00 18,6 16,4 17,1 19,1 18,2 26 14 35 19 O 1012,4 12 0 0,6
21.05.2018 21:00:00 18,8 15,3 16,9 19,1 18,1 8 5 27 15 NNO 1011,6 3,8 0 4,3
21.05.2018 20:00:00 20,8 14,2 20,7 19,1 18,2 11 6 15 8 ZZW 1011,2 30 0 0,0
21.05.2018 19:00:00 20,9 15,0 21,5 19,1 18,1 10 6 23 12 ZW 1011,2 30 0 0,0
21.05.2018 18:00:00 22,0 13,6 23,2 19,1 18,2 7 4 14 8 ZW 1010,8 40 0 0,0
21.05.2018 17:00:00 22,9 13,1 25,6 19,1 18,1 9 5 21 11 ZZW 1010,5 40 13 0,0
21.05.2018 16:00:00 22,4 14,3 25,5 19,1 18,1 15 8 23 13 OZO 1010,7 40 26 0,0
21.05.2018 15:00:00 23,0 13,2 25,5 19,1 18,1 19 10 24 13 OZO 1011,1 40 0 0,0
21.05.2018 14:00:00 23,1 12,1 26,2 19,1 18,1 15 8 25 14 O 1011,5 40 40 0,0
21.05.2018 13:00:00 23,3 14,0 27,9 19,1 18,1 14 7 23 12 O 1012,0 40 44 0,0
21.05.2018 12:00:00 22,6 13,4 23,2 19,1 18,1 3 2 21 11 O 1012,5 40 31 0,0
21.05.2018 11:00:00 20,6 14,0 23,8 19,1 18,1 15 8 21 11 ZZO 1012,4 40 21 0,0
21.05.2018 10:00:00 22,8 9,6 23,3 19,1 18,1 16 9 28 15 NNW 1012,3 40 36 0,0
21.05.2018 09:00:00 21,2 8,8 20,0 19,0 18,1 21 11 31 17 NNW 1012,4 40 41 0,0
21.05.2018 08:00:00 19,3 8,9 18,6 19,0 18,1 25 14 37 20 NNW 1012,5 40 53 0,0
21.05.2018 07:00:00 18,1 8,9 17,0 19,0 18,1 25 14 35 19 NNW 1012,5 40 30 0,0
21.05.2018 06:00:00 17,9 9,3 16,6 19,0 18,0 20 11 30 16 NNW 1012,5 40 0 0,0
21.05.2018 05:00:00 17,9 9,5 16,9 19,0 18,1 25 14 31 17 NNW 1012,6 40 0 0,0
21.05.2018 04:00:00 18,5 9,8 17,5 19,0 18,0 18 10 25 14 NNW 1012,8 40 0 0,0
21.05.2018 03:00:00 18,7 10,3 17,8 18,9 18,0 15 8 24 13 N 1013,1 40 0 0,0
21.05.2018 02:00:00 19,2 10,5 18,4 18,9 18,0 15 8 25 13 NNW 1013,5 40 0 0,0
21.05.2018 01:00:00 19,6 10,6 18,6 18,9 18,0 13 7 21 11 N 1014,0 40 0 0,0
21.05.2018 00:00:00 20,2 10,9 19,1 18,9 18,0 16 9 22 12 NNW 1014,0 40 0 0,0
20.05.2018 23:00:00 20,1 11,3 19,2 18,9 18,0 15 8 21 12 NNW 1013,9 40 0 0,0
20.05.2018 22:00:00 21,0 11,9 19,3 18,8 18,0 12 6 19 11 NW 1013,7 40 0 0,0
20.05.2018 21:00:00 20,4 13,6 19,3 18,8 18,1 10 5 13 7 W 1013,3 40 17 0,0
20.05.2018 20:00:00 21,4 15,9 23,3 18,8 18,0 7 4 12 6 ZZW 1013,1 40 60 0,0
20.05.2018 19:00:00 22,3 15,4 25,9 18,8 17,9 6 4 9 5 OZO 1012,6 40 60 0,0
20.05.2018 18:00:00 22,5 15,3 29,0 18,8 18,0 8 5 15 8 Z 1012,9 40 60 0,0
20.05.2018 17:00:00 22,4 15,5 29,5 18,8 17,9 9 5 14 7 Z 1013,0 40 60 0,0
20.05.2018 16:00:00 21,9 14,8 29,8 18,8 18,0 9 5 14 7 ZZW 1013,9 40 60 0,0
20.05.2018 15:00:00 22,0 14,9 29,6 18,8 17,9 8 5 12 6 Z 1014,6 40 60 0,0
20.05.2018 14:00:00 21,1 15,9 28,7 18,8 18,0 5 3 13 7 OZO 1014,8 40 60 0,0
20.05.2018 13:00:00 21,2 15,5 29,1 18,8 17,9 8 5 14 8 ZZO 1015,0 40 60 0,0
20.05.2018 12:00:00 20,9 15,9 26,9 18,8 18,0 8 5 17 9 Z 1015,1 40 60 0,0
20.05.2018 11:00:00 20,5 15,3 26,2 18,7 17,9 13 7 16 8 ZO 1015,0 40 60 0,0
20.05.2018 10:00:00 21,7 12,0 25,4 18,7 17,9 10 5 16 9 OZO 1014,9 40 60 0,0
20.05.2018 09:00:00 20,5 10,3 21,7 18,7 18,0 13 7 20 11 NNW 1015,0 40 60 0,0
20.05.2018 08:00:00 18,5 10,1 18,4 18,7 17,9 13 7 26 14 NNW 1015,0 40 60 0,0
20.05.2018 07:00:00 17,0 9,9 16,1 18,7 17,9 18 10 28 15 NNW 1015,0 50 35 0,0
20.05.2018 06:00:00 16,8 10,2 16,0 18,7 17,9 18 10 23 13 NNW 1014,7 50 0 0,0
20.05.2018 05:00:00 17,0 10,4 16,2 18,7 17,9 14 8 24 13 NNW 1014,7 40 0 0,0
20.05.2018 04:00:00 17,2 10,6 16,4 18,6 17,9 14 8 22 12 N 1014,9 40 0 0,0
20.05.2018 03:00:00 17,5 10,8 16,7 18,6 17,9 13 7 19 10 NNW 1015,2 40 0 0,0
20.05.2018 02:00:00 17,9 11,5 17,0 18,6 17,8 13 7 18 10 NNW 1015,6 40 0 0,0
20.05.2018 01:00:00 18,4 11,9 17,7 18,6 17,9 11 6 19 11 NNW 1015,7 40 0 0,0
20.05.2018 00:00:00 18,8 12,1 17,8 18,5 17,8 13 7 21 11 NNW 1015,6 40 0 0,0
19.05.2018 23:00:00 19,9 11,9 18,8 18,5 17,8 13 7 22 12 NNW 1015,3 40 0 0,0
19.05.2018 22:00:00 20,5 11,7 19,5 18,5 17,9 10 5 16 9 NW 1014,6 40 0 0,0
19.05.2018 21:00:00 21,3 11,6 20,3 18,5 17,8 8 4 15 8 NNW 1014,0 40 25 0,0
19.05.2018 20:00:00 22,6 11,3 24,0 18,4 17,8 8 5 20 11 Z 1014,1 50 55 0,0
19.05.2018 19:00:00 21,8 12,6 26,6 18,4 17,8 15 8 21 11 Z 1014,2 50 60 0,0
19.05.2018 18:00:00 22,3 13,4 27,6 18,4 17,8 8 5 13 7 Z 1014,7 50 60 0,0
19.05.2018 17:00:00 22,0 14,4 27,8 18,4 17,8 8 4 10 6 Z 1015,1 50 55 0,0
19.05.2018 16:00:00 21,3 14,7 26,6 18,4 17,8 6 4 10 5 ZZO 1015,6 50 50 0,0
19.05.2018 15:00:00 20,8 15,8 28,2 18,4 17,8 7 4 11 6 ZO 1016,0 50 60 0,0
19.05.2018 14:00:00 20,7 15,7 28,4 18,4 17,8 9 5 11 6 ZO 1015,9 50 60 0,0
19.05.2018 13:00:00 20,4 16,4 27,6 18,4 17,8 10 5 13 7 ZO 1016,2 50 60 0,0
19.05.2018 12:00:00 20,5 14,2 27,7 18,4 17,8 7 4 9 5 ZO 1016,3 50 60 0,0
19.05.2018 11:00:00 20,0 13,9 24,2 18,4 17,8 9 5 12 6 ZZO 1016,2 50 60 0,0
19.05.2018 10:00:00 19,8 14,4 25,0 18,3 17,8 7 4 9 5 ZO 1016,0 50 60 0,0
19.05.2018 09:00:00 19,8 13,0 20,3 18,4 17,7 7 4 10 5 ONO 1015,9 40 31 0,0
19.05.2018 08:00:00 18,3 12,3 17,9 18,4 17,8 0 0 10 6 N 1015,6 40 19 0,0
19.05.2018 07:00:00 17,7 12,2 15,5 18,3 17,8 9 5 13 7 NNW 1015,1 40 34 0,0
19.05.2018 06:00:00 17,0 12,3 15,5 18,3 17,8 4 2 10 5 N 1014,8 40 0 0,0
19.05.2018 05:00:00 17,4 12,3 15,5 18,3 17,8 2 1 9 5 N 1014,8 40 0 0,0
19.05.2018 04:00:00 18,2 14,5 16,5 18,2 17,8 3 2 6 4 NNO 1014,8 40 0 0,0
19.05.2018 03:00:00 18,4 14,9 16,9 18,2 17,8 4 2 9 5 ONO 1015,1 40 0 0,0
19.05.2018 02:00:00 19,1 12,1 17,8 18,3 17,8 9 5 19 10 NNO 1015,3 40 0 0,0
19.05.2018 01:00:00 19,8 12,5 18,7 18,2 17,8 10 6 16 9 N 1015,5 40 0 0,0
19.05.2018 00:00:00 20,1 12,1 19,3 18,2 17,8 10 5 16 9 N 1015,7 40 0 0,0
18.05.2018 23:00:00 19,8 11,8 18,7 18,2 17,7 12 6 19 10 NNW 1015,6 40 0 0,0
18.05.2018 22:00:00 20,2 11,7 18,9 18,2 17,7 9 5 19 11 NNW 1015,5 40 0 0,0
18.05.2018 21:00:00 20,2 12,4 18,7 18,2 17,7 4 2 12 7 W 1015,3 40 11 0,0
18.05.2018 20:00:00 19,9 14,7 20,2 18,2 17,7 6 4 14 7 Z 1015,3 40 20 0,0
18.05.2018 19:00:00 20,4 12,4 22,0 18,2 17,8 11 6 13 7 ZZW 1015,4 40 6 0,0
18.05.2018 18:00:00 21,0 10,5 22,6 18,1 17,7 8 4 14 8 WZW 1015,6 40 3 0,0
18.05.2018 17:00:00 20,5 13,7 24,0 18,1 17,8 8 4 15 8 Z 1015,6 40 37 0,0
18.05.2018 16:00:00 20,3 14,9 28,5 18,2 17,8 10 6 16 8 Z 1015,8 40 60 0,0
18.05.2018 15:00:00 19,9 14,9 26,5 18,1 17,8 13 7 16 9 Z 1016,2 40 56 0,0
18.05.2018 14:00:00 20,0 14,8 27,4 18,1 17,8 11 6 14 8 Z 1016,6 40 60 0,0
18.05.2018 13:00:00 19,3 14,1 27,0 18,1 17,8 10 5 13 7 ZZO 1016,9 40 60 0,0
18.05.2018 12:00:00 19,1 14,6 24,8 18,1 17,8 10 6 18 10 ZZO 1016,9 40 60 0,0
18.05.2018 11:00:00 18,5 14,4 24,2 18,1 17,7 16 9 19 10 ZZO 1016,6 40 60 0,0
18.05.2018 10:00:00 18,2 13,9 23,4 18,1 17,7 9 5 13 7 ZO 1016,4 40 60 0,0
18.05.2018 09:00:00 19,0 12,0 21,3 18,1 17,7 8 5 16 9 ONO 1016,4 40 60 0,0
18.05.2018 08:00:00 16,9 11,0 17,7 18,1 17,8 12 6 20 11 NNW 1016,6 40 60 0,0
18.05.2018 07:00:00 15,5 11,5 14,3 18,1 17,8 8 5 14 8 NNW 1016,5 40 34 0,0
18.05.2018 06:00:00 15,3 11,3 14,1 18,1 17,7 9 5 15 8 N 1016,2 40 0 0,0
18.05.2018 05:00:00 15,6 11,8 14,0 18,1 17,7 7 4 15 8 NNO 1016,1 25 0 0,0
18.05.2018 04:00:00 14,9 12,0 14,2 18,0 17,8 13 7 24 13 NNW 1016,0 25 0 0,0
18.05.2018 03:00:00 15,6 12,5 14,6 18,0 17,7 9 5 12 6 NNW 1016,2 25 0 0,0
18.05.2018 02:00:00 16,4 12,9 15,5 18,0 17,7 4 2 10 6 N 1016,8 25 0 0,0
18.05.2018 01:00:00 16,9 13,4 15,6 18,0 17,8 4 2 8 5 NNO 1017,0 25 0 0,0
18.05.2018 00:00:00 17,2 13,7 15,6 18,0 17,8 5 3 7 4 NO 1017,0 25 0 0,0
17.05.2018 23:00:00 17,2 13,1 15,7 18,0 17,7 3 2 5 3 O 1016,9 25 0 0,0
17.05.2018 22:00:00 17,4 13,1 16,3 18,0 17,7 0 0 8 4 N 1016,8 25 0 0,0
17.05.2018 21:00:00 17,6 13,5 16,9 18,0 17,7 5 3 9 5 OZO 1016,3 40 4 0,0
17.05.2018 20:00:00 18,3 13,8 19,6 18,0 17,8 8 4 10 5 OZO 1015,5 58 60 0,0

tt = temperatuur
td = dauwpunt
tt 5cm = temperatuur 5cm
tt -20cm = temperatuur -20cm
tt -100cm = temperatuur -100cm
ff = windsnelheid
fx = windstoten
dd = windrichting
ppp = luchtdruk
vv = zicht
sd = Zonneschijnduur
rr = neerslag

Weerstations in de omgeving